TimePDT,TemperatureF,Dew PointF,Humidity,Sea Level PressureIn,VisibilityMPH,Wind Direction,Wind SpeedMPH,Gust SpeedMPH,PrecipitationIn,Events,Conditions,WindDirDegrees,DateUTC
12:53 AM,64.0,48.0,56,29.95,10.0,WNW,15.0,-,N/A,,Mostly Cloudy,290,2013-06-18 07:53:00
1:53 AM,63.0,46.9,56,29.94,10.0,WNW,16.1,24.2,N/A,,Mostly Cloudy,290,2013-06-18 08:53:00
2:53 AM,62.1,46.9,58,29.96,10.0,WNW,12.7,-,N/A,,Overcast,290,2013-06-18 09:53:00
3:53 AM,61.0,46.0,58,29.95,10.0,WNW,15.0,-,N/A,,Mostly Cloudy,300,2013-06-18 10:53:00
4:53 AM,60.1,46.9,62,29.96,10.0,West,10.4,-,N/A,,Mostly Cloudy,280,2013-06-18 11:53:00
5:53 AM,59.0,46.9,64,29.96,10.0,WNW,4.6,-,N/A,,Mostly Cloudy,300,2013-06-18 12:53:00
6:53 AM,61.0,48.0,62,29.97,10.0,NW,9.2,-,N/A,,Mostly Cloudy,320,2013-06-18 13:53:00
7:53 AM,62.1,46.9,58,29.97,10.0,NW,12.7,20.7,N/A,,Overcast,310,2013-06-18 14:53:00
8:53 AM,64.9,46.0,50,29.96,10.0,NW,16.1,23.0,N/A,,Overcast,320,2013-06-18 15:53:00
9:53 AM,64.0,45.0,50,29.95,10.0,NW,12.7,19.6,N/A,,Overcast,320,2013-06-18 16:53:00
10:53 AM,66.0,45.0,47,29.94,10.0,NW,9.2,-,N/A,,Overcast,320,2013-06-18 17:53:00
11:53 AM,66.9,44.1,44,29.93,10.0,NW,9.2,-,N/A,,Overcast,320,2013-06-18 18:53:00
12:53 PM,70.0,43.0,38,29.91,10.0,NNW,9.2,-,N/A,,Overcast,340,2013-06-18 19:53:00
1:53 PM,71.1,42.1,35,29.89,10.0,NW,9.2,-,N/A,,Mostly Cloudy,310,2013-06-18 20:53:00
2:53 PM,72.0,39.0,30,29.88,10.0,NW,10.4,19.6,N/A,,Overcast,310,2013-06-18 21:53:00
3:53 PM,73.9,39.0,28,29.86,10.0,WNW,11.5,17.3,N/A,,Scattered Clouds,300,2013-06-18 22:53:00
4:53 PM,75.9,39.0,26,29.85,10.0,WNW,13.8,21.9,N/A,,Partly Cloudy,300,2013-06-18 23:53:00
5:53 PM,75.0,37.9,26,29.83,10.0,WNW,17.3,26.5,N/A,,Clear,290,2013-06-19 00:53:00
6:53 PM,69.1,39.9,35,29.86,10.0,West,16.1,27.6,N/A,,Clear,260,2013-06-19 01:53:00
7:53 PM,68.0,42.1,39,29.86,10.0,NW,13.8,-,N/A,,Clear,310,2013-06-19 02:53:00
8:53 PM,64.0,42.1,45,29.87,10.0,NW,11.5,-,N/A,,Clear,310,2013-06-19 03:53:00
9:53 PM,61.0,45.0,56,29.89,10.0,NW,16.1,23.0,N/A,,Clear,320,2013-06-19 04:53:00
10:53 PM,62.1,42.1,48,29.90,10.0,West,19.6,26.5,N/A,,Clear,270,2013-06-19 05:53:00
11:53 PM,60.1,43.0,53,29.90,10.0,West,13.8,23.0,N/A,,Clear,270,2013-06-19 06:53:00